Tracking 27122 objects as of 24-Mar-2023
HD Live streaming from Space Station
objects crossing your sky now

COSMOS 1823 DEB

Track COSMOS 1823 DEB now!
10-day predictions


NORAD ID: 18751
Int'l Code: 1987-020AC
Perigee: 1,484.7 km
Apogee: 1,603.5 km
Inclination: 73.6 °
Period: 116.8 minutes
Semi major axis: 7915 km
RCS: 0.1997 m2 (medium)
Launch date: February 20, 1987
Source: Commonwealth of Independent States (former USSR) (CIS)
Launch site: PLESETSK MISSILE AND SPACE COMPLEX (PKMTR)

Note: This is SATELLITE DEBRIS
Your satellite tracking list
Your tracking list is empty




NASA's NSSDC Master Catalog

Two Line Element Set (TLE):
1 18751U 87020AC  23082.88039696  .00000092  00000-0  88272-3 0  9994
2 18751  73.6285 136.4946 0075060  25.0022 149.1639 12.32881077586626
Source of the keplerian elements: AFSPC